CAPE
0 0 0 13 1 12 0 0 14 3 0 23 18 11 0 0 0 0 2 0 106 253 254 238 427 243 64 36 28 35 24 10 28 16 23 28 33 25 38 35 105 64 29 25 16 58 78 99 105
0 0 0 15 0 0 0 4 7 0 0 8 10 1 5 1 0 0 4 25 204 257 174 140 200 155 46 26 29 38 11 11 26 42 21 16 31 48 17 69 85 62 23 26 16 34 78 97 90
0 0 0 24 0 0 0 0 0 29 27 21 11 25 21 2 0 0 5 80 240 251 158 97 111 122 83 38 38 24 12 34 39 76 26 26 55 38 67 70 83 58 24 46 24 37 78 100 92
0 0 0 0 12 0 0 3 0 2 10 18 22 26 11 10 0 0 22 146 248 236 157 129 131 22 125 58 44 25 41 17 68 78 49 32 57 57 68 80 103 72 42 48 80 87 84 93 84
0 0 0 0 0 19 0 13 0 1 0 12 33 26 13 0 0 13 61 160 254 262 154 156 123 128 151 86 46 20 59 31 47 40 57 56 37 36 64 73 71 50 39 45 67 79 76 88 76
0 0 0 0 0 0 0 3 1 0 0 18 88 64 36 2 0 50 101 112 297 247 159 147 103 50 86 67 39 16 35 25 30 65 160 55 52 55 67 73 62 44 41 52 76 47 46 81 76
0 0 0 0 0 0 0 0 4 0 0 61 159 134 61 18 0 117 123 162 312 233 180 127 52 28 43 6 14 38 53 29 37 47 72 72 79 95 100 87 80 40 40 59 56 41 85 73 74
0 0 0 0 0 0 0 0 0 0 1 225 184 178 69 52 0 85 169 263 291 317 245 86 38 33 16 15 7 18 16 19 20 26 25 39 50 54 58 47 80 44 43 47 29 18 59 63 52
0 0 0 0 0 0 0 0 0 0 0 152 206 207 156 48 40 8 181 365 381 410 570 143 65 15 8 17 9 9 6 0 0 5 15 29 14 27 39 32 52 68 38 17 3 0 18 15 23
0 0 0 0 0 0 0 0 0 0 0 51 119 143 78 36 60 40 104 360 908 465 545 161 74 10 6 14 3 10 7 0 0 1 17 14 0 24 25 1 10 16 12 8 0 0 0 0 5
0 0 0 0 0 0 0 0 0 0 0 1 97 129 82 53 170 93 39 129 343 387 399 174 52 35 71 42 0 8 12 5 0 0 1 0 0 16 19 1 1 0 0 0 0 0 0 0 0
0 0 0 0 0 0 0 0 0 0 0 2 112 134 149 135 100 282 247 122 238 310 243 124 89 53 119 72 6 2 5 5 1 0 0 0 0 2 0 0 1 1 0 0 0 0 0 0 0
0 0 0 0 0 0 0 0 0 0 0 0 199 187 135 118 101 164 372 350 219 224 207 144 92 130 362 95 59 0 0 1 2 0 0 0 0 1 0 0 1 0 0 0 0 0 0 0 0
0 0 0 0 0 0 0 0 0 0 0 0 38 158 158 102 137 125 114 226 496 432 286 229 163 243 311 249 111 60 0 0 5 2 0 0 0 0 0 0 0 0 0 0 0 0 0 0 0
0 0 0 0 0 0 0 0 0 0 6 0 0 0 15 201 93 213 196 170 449 615 523 345 272 363 535 394 140 91 11 0 10 8 0 0 0 0 0 0 0 0 0 1 6 0 0 0 0
0 0 0 0 0 0 0 0 0 0 0 0 0 0 0 0 178 181 266 274 250 623 638 513 439 391 242 155 248 112 30 16 6 4 1 0 0 0 0 0 0 0 6 0 0 0 0 0 0
0 0 0 0 0 0 0 0 0 0 0 0 0 0 0 0 0 56 284 303 261 359 482 630 535 364 266 220 297 113 60 34 0 4 9 1 0 0 0 0 2 0 0 0 0 0 0 0 0
0 0 0 0 0 0 0 0 0 0 0 0 0 0 0 0 0 0 319 373 353 305 273 504 471 440 357 271 148 115 104 24 5 1 3 3 0 0 0 2 7 6 3 0 0 0 0 0 0
0 0 0 0 0 0 0 0 0 0 0 0 0 0 0 0 0 0 10 289 340 347 354 401 536 492 438 259 113 75 71 62 26 4 0 0 0 0 0 14 4 7 2 0 0 0 0 0 0
0 0 0 0 0 0 0 0 0 0 0 0 0 0 0 0 0 0 0 57 310 406 385 350 395 390 283 264 156 68 50 4 8 0 0 2 3 1 0 5 5 6 4 4 4 0 0 0 0
0 0 0 0 0 0 0 0 0 0 0 0 0 0 0 0 0 0 0 1 99 259 339 340 323 313 327 244 219 140 38 36 12 16 0 6 0 0 0 1 4 3 9 4 6 3 0 0 0
0 0 0 0 0 0 0 0 0 0 0 0 0 0 0 0 0 0 1 3 35 213 218 257 292 241 264 261 181 124 91 35 2 20 3 15 47 3 0 0 0 3 6 6 4 5 0 0 0
0 0 0 0 0 0 0 0 0 0 0 0 0 0 0 0 0 0 0 0 0 0 77 130 185 178 130 129 112 124 97 63 27 57 16 23 0 6 0 0 0 6 4 2 12 9 4 1 0
0 0 0 0 0 0 0 0 0 0 0 0 0 0 0 0 0 0 0 0 0 0 0 0 68 103 100 99 82 88 92 63 63 35 15 24 60 7 0 0 0 0 5 1 1 5 7 3 0
0 0 0 0 0 0 0 0 0 0 0 0 0 0 0 0 0 0 0 0 0 0 0 0 2 67 94 103 96 94 85 64 61 48 9 27 17 26 27 12 0 0 0 4 2 0 3 4 4
0 0 0 0 0 0 0 0 0 0 0 0 0 0 0 0 0 0 0 0 0 0 0 0 0 13 57 76 93 100 84 84 95 80 72 22 3 12 25 46 0 0 0 0 7 5 0 0 2
0 0 0 0 0 0 0 0 0 0 0 0 0 0 0 0 0 0 0 0 0 0 0 0 0 0 0 62 81 101 107 103 81 127 66 32 23 5 64 43 23 2 0 0 3 9 2 1 1
0 0 0 0 0 0 0 0 0 0 0 0 0 0 0 0 0 0 0 0 0 0 0 0 0 0 0 7 102 110 101 111 97 86 80 60 62 78 65 42 27 15 9 2 1 8 4 2 0
0 0 0 0 0 0 0 0 0 0 0 0 0 0 0 0 0 0 0 0 0 0 0 0 0 0 25 65 153 135 131 112 99 228 44 52 65 78 56 56 58 54 37 15 41 62 71 48 9
0 0 0 0 0 0 0 0 0 0 0 0 0 0 0 0 0 0 0 0 0 0 0 3 1 4 64 209 332 212 148 150 117 98 83 68 60 92 76 81 85 53 21 75 76 104 51 50 39
CIN
-0 -0 -0 -50 -2 -47 -0 -0 -2 -1 -0 -12 -9 -7 -8 -29 -0 -4 -40 -0 -192 -35 -17 -10 -1 -27 -61 -163 -0 -156 -0 -0 -0 -0 -0 -0 -1 -0 -0 -1 -74 -0 -0 -0 -0 -0 -0 -0 -0
-0 -0 -0 -76 -0 -0 -0 -59 -13 -6 -0 -6 -78 -47 -36 -8 -0 -0 -244 -321 -94 -36 -26 -33 -29 -37 -102 -6 -288 -150 -0 -0 -0 -0 -0 -0 -0 -1 -0 -1 -0 -0 -0 -0 -0 -0 -0 -0 -0
-0 -0 -0 -51 -0 -0 -0 -0 -0 -29 -11 -3 -10 -71 -77 -11 -0 -0 -197 -267 -87 -13 -33 -52 -49 -53 -95 -185 -281 -166 -0 -221 -201 -136 -2 -0 -1 -2 -0 -2 -0 -0 -0 -1 -0 -0 -0 -0 -0
-0 -0 -0 -0 -191 -0 -0 -1 -1 -10 -8 -31 -25 -105 -98 -74 -0 -0 -365 -191 -77 -15 -26 -39 -37 -203 -52 -156 -219 -136 -230 -0 -197 -222 -0 -3 -1 -1 -0 -1 -0 -0 -0 -0 -0 -0 -0 -0 -0
-0 -0 -0 -0 -0 -182 -0 -0 -0 -4 -0 -19 -25 -92 -70 -0 -0 -199 -277 -154 -74 -11 -23 -25 -30 -39 -44 -114 -194 -0 -204 -341 -232 -80 -0 -0 -0 -2 -0 -2 -0 -1 -0 -0 -0 -0 -0 -0 -0
-0 -0 -0 -0 -0 -0 -0 -1 -6 -0 -0 -37 -31 -26 -34 -2 -0 -276 -224 -147 -39 -32 -27 -10 -21 -84 -95 -124 -221 -0 -146 -0 -0 -203 -139 -0 -0 -0 -0 -0 -0 -2 -0 -0 -0 -0 -0 -0 -0
-0 -0 -0 -0 -0 -0 -0 -0 -2 -0 -0 -23 -29 -53 -27 -15 -0 -200 -173 -100 -15 -13 -15 -24 -70 -104 -123 -182 -10 -288 -247 -3 -2 -27 -43 -0 -0 -0 -0 -0 -0 -2 -1 -0 -0 -0 -0 -1 -0
-0 -0 -0 -0 -0 -0 -0 -0 -0 -0 -21 -52 -35 -21 -50 -15 -1 -209 -116 -61 -16 -0 -0 -31 -75 -85 -143 -132 -8 -19 -33 -14 -9 -8 -5 -3 -4 -3 -4 -4 -0 -2 -2 -0 -1 -5 -0 -0 -5
-0 -0 -0 -0 -0 -0 -0 -0 -0 -0 -0 -85 -70 -63 -50 -30 -24 -63 -147 -44 -17 -3 -0 -16 -47 -87 -141 -87 -10 -13 -21 -0 -0 -4 -8 -3 -4 -4 -2 -2 -3 -0 -5 -8 -3 -0 -19 -22 -32
-0 -0 -0 -0 -0 -0 -0 -0 -0 -0 -0 -118 -68 -90 -69 -31 -124 -19 -206 -90 -14 -29 -5 -30 -47 -92 -72 -53 -3 -26 -35 -0 -0 -3 -10 -11 -0 -3 -1 -0 -8 -10 -17 -17 -0 -0 -0 -0 -18
-0 -0 -0 -0 -0 -0 -0 -0 -0 -0 -0 -11 -88 -78 -73 -63 -151 -188 -171 -176 -77 -43 -30 -49 -67 -70 -17 -35 -0 -17 -35 -18 -0 -0 -1 -0 -0 -1 -0 -0 -1 -0 -0 -0 -0 -0 -0 -0 -1
-0 -0 -0 -0 -0 -0 -0 -0 -0 -0 -0 -8 -58 -52 -53 -45 -164 -108 -125 -167 -85 -57 -62 -80 -68 -90 -18 -12 -19 -9 -22 -17 -3 -0 -0 -0 -0 -1 -0 -0 -2 -1 -0 -0 -0 -0 -0 -0 -0
-0 -0 -0 -0 -0 -0 -0 -0 -0 -0 -0 -0 -42 -43 -35 -51 -124 -89 -43 -43 -77 -82 -73 -84 -94 -59 -2 -14 -18 -0 -0 -9 -17 -7 -0 -0 -0 -1 -0 -0 -0 -0 -0 -0 -0 -0 -0 -0 -0
-0 -0 -0 -0 -0 -0 -0 -0 -0 -0 -0 -0 -14 -31 -28 -41 -89 -68 -66 -67 -35 -35 -58 -57 -66 -26 -1 -5 -8 -9 -0 -0 -0 -0 -0 -0 -0 -0 -0 -0 -0 -0 -0 -0 -0 -0 -0 -0 -0
-0 -0 -0 -0 -0 -0 -0 -0 -0 -0 -40 -0 -0 -0 -1 -6 -35 -58 -54 -63 -39 -16 -23 -43 -61 -30 -0 -0 -2 -18 -107 -0 -26 -0 -0 -0 -0 -0 -0 -0 -0 -0 -0 -3 -5 -0 -0 -0 -0
-0 -0 -0 -0 -0 -0 -0 -0 -0 -0 -0 -0 -0 -0 -0 -0 -7 -36 -65 -61 -63 -16 -16 -26 -15 -10 -27 -30 -0 -18 -96 -154 -24 -0 -0 -0 -0 -0 -0 -0 -0 -0 -13 -0 -0 -0 -0 -0 -0
-0 -0 -0 -0 -0 -0 -0 -0 -0 -0 -0 -0 -0 -0 -0 -0 -0 -20 -14 -58 -52 -56 -41 -22 -8 -26 -43 -37 -3 -21 -53 -115 -0 -4 -0 -0 -0 -0 -0 -0 -0 -5 -0 -0 -0 -0 -0 -0 -0
-0 -0 -0 -0 -0 -0 -0 -0 -0 -0 -0 -0 -0 -0 -0 -0 -0 -0 -20 -24 -32 -81 -87 -33 -22 -5 -16 -26 -30 -28 -24 -136 -21 -6 -1 -0 -0 -0 -0 -2 -2 -12 -6 -0 -0 -0 -0 -0 -0
-0 -0 -0 -0 -0 -0 -0 -0 -0 -0 -0 -0 -0 -0 -0 -0 -0 -0 -22 -35 -18 -51 -40 -49 -15 -9 -4 -17 -54 -75 -91 -103 -107 -2 -0 -0 -0 -0 -0 -8 -11 -0 -0 -0 -0 -0 -0 -0 -0
-0 -0 -0 -0 -0 -0 -0 -0 -0 -0 -0 -0 -0 -0 -0 -0 -0 -0 -0 -86 -22 -11 -66 -44 -39 -21 -36 -5 -21 -34 -67 -137 -96 -0 -0 -2 -0 -0 -0 -7 -22 -0 -0 -0 -0 -0 -0 -0 -0
-0 -0 -0 -0 -0 -0 -0 -0 -0 -0 -0 -0 -0 -0 -0 -0 -0 -0 -0 -59 -73 -25 -9 -48 -41 -44 -21 -19 -0 -4 -5 -9 -7 -3 -0 -21 -0 -0 -0 -1 -6 -0 -0 -0 -0 -0 -0 -0 -0
-0 -0 -0 -0 -0 -0 -0 -0 -0 -0 -0 -0 -0 -0 -0 -0 -0 -0 -0 -0 -135 -50 -25 -34 -52 -34 -26 -16 -10 -3 -28 -13 -31 -71 -69 -30 -1 -0 -0 -0 -0 -0 -0 -0 -0 -0 -0 -0 -0
-0 -0 -0 -0 -0 -0 -0 -0 -0 -0 -0 -0 -0 -0 -0 -0 -0 -0 -0 -0 -0 -0 -34 -44 -57 -55 -60 -37 -41 -33 -1 -34 -13 -0 -5 -10 -0 -0 -0 -0 -0 -1 -1 -2 -0 -0 -0 -0 -0
-0 -0 -0 -0 -0 -0 -0 -0 -0 -0 -0 -0 -0 -0 -0 -0 -0 -0 -0 -0 -0 -0 -0 -0 -33 -55 -51 -40 -56 -32 -25 -8 -14 -30 -21 -21 -3 -4 -0 -0 -0 -0 -0 -0 -1 -0 -0 -0 -0
-0 -0 -0 -0 -0 -0 -0 -0 -0 -0 -0 -0 -0 -0 -0 -0 -0 -0 -0 -0 -0 -0 -0 -0 -3 -12 -51 -50 -27 -36 -22 -6 -5 -5 -9 -16 -40 -11 -14 -65 -0 -0 -0 -0 -0 -0 -0 -0 -0
-0 -0 -0 -0 -0 -0 -0 -0 -0 -0 -0 -0 -0 -0 -0 -0 -0 -0 -0 -0 -0 -0 -0 -0 -0 -6 -2 -24 -68 -56 -59 -12 -14 -13 -1 -3 -48 -36 -0 -23 -0 -0 -0 -0 -1 -0 -0 -0 -0
-0 -0 -0 -0 -0 -0 -0 -0 -0 -0 -0 -0 -0 -0 -0 -0 -0 -0 -0 -0 -0 -0 -0 -0 -0 -0 -0 -5 -32 -66 -62 -38 -20 -11 -5 -7 -35 -33 -8 -21 -6 -0 -0 -0 -2 -0 -0 -0 -0
-0 -0 -0 -0 -0 -0 -0 -0 -0 -0 -0 -0 -0 -0 -0 -0 -0 -0 -0 -0 -0 -0 -0 -0 -0 -0 -0 -28 -33 -41 -56 -51 -37 -17 -0 -5 -22 -3 -39 -3 -3 -10 -0 -0 -0 -1 -0 -0 -0
-0 -0 -0 -0 -0 -0 -0 -0 -0 -0 -0 -0 -0 -0 -0 -0 -0 -0 -0 -0 -0 -0 -0 -0 -0 -0 -72 -54 -21 -32 -17 -32 -21 -1 -18 -0 -8 -30 -1 -3 -1 -2 -0 -0 -0 -0 -0 -0 -0
-0 -0 -0 -0 -0 -0 -0 -0 -0 -0 -0 -0 -0 -0 -0 -0 -0 -0 -0 -0 -0 -0 -0 -0 -0 -0 -39 -23 -1 -2 -4 -0 -0 -0 -3 -16 -13 -2 -6 -11 -0 -0 -0 -0 -0 -0 -0 -0 -0
Wind_Speed
nan nan nan nan nan nan nan nan nan nan nan nan nan nan nan nan nan nan nan nan 14 11 12 13 14 18 nan nan nan nan nan nan nan nan nan nan nan nan nan nan 14 nan nan nan nan nan nan nan 18
nan nan nan nan nan nan nan nan nan nan nan nan nan nan nan nan nan nan nan nan 13 11 11 13 16 19 nan nan nan nan nan nan nan nan nan nan nan nan nan nan nan nan nan nan nan nan nan nan nan
nan nan nan nan nan nan nan nan nan nan nan nan nan nan nan nan nan nan nan nan 15 11 11 nan 18 21 nan nan nan nan nan nan nan nan nan nan nan nan nan nan nan nan nan nan nan nan nan 15 nan
nan nan nan nan nan nan nan nan nan nan nan nan nan nan nan nan nan nan nan 19 18 15 13 11 16 nan 19 nan nan nan nan nan nan nan nan nan nan nan nan nan 14 nan nan nan nan nan nan nan nan
nan nan nan nan nan nan nan nan nan nan nan nan nan nan nan nan nan nan nan 21 22 18 16 13 14 15 17 nan nan nan nan nan nan nan nan nan nan nan nan nan nan nan nan nan nan nan nan nan nan
nan nan nan nan nan nan nan nan nan nan nan nan nan nan nan nan nan nan 23 24 25 23 19 18 17 nan nan nan nan nan nan nan nan nan 15 nan nan nan nan nan nan nan nan nan nan nan nan nan nan
nan nan nan nan nan nan nan nan nan nan nan nan 27 30 nan nan nan 22 22 28 28 26 24 20 nan nan nan nan nan nan nan nan nan nan nan nan nan nan 12 nan nan nan nan nan nan nan nan nan nan
nan nan nan nan nan nan nan nan nan nan nan 35 33 25 nan nan nan nan 29 28 31 27 26 nan nan nan nan nan nan nan nan nan nan nan nan nan nan nan nan nan nan nan nan nan nan nan nan nan nan
nan nan nan nan nan nan nan nan nan nan nan 33 36 32 25 nan nan nan 30 28 28 28 26 23 nan nan nan nan nan nan nan nan nan nan nan nan nan nan nan nan nan nan nan nan nan nan nan nan nan
nan nan nan nan nan nan nan nan nan nan nan nan 33 36 nan nan nan nan 27 26 25 28 27 26 nan nan nan nan nan nan nan nan nan nan nan nan nan nan nan nan nan nan nan nan nan nan nan nan nan
nan nan nan nan nan nan nan nan nan nan nan nan nan 29 nan nan 30 nan nan 26 24 26 29 29 nan nan nan nan nan nan nan nan nan nan nan nan nan nan nan nan nan nan nan nan nan nan nan nan nan
nan nan nan nan nan nan nan nan nan nan nan nan 26 28 29 30 31 31 30 30 26 23 29 30 nan nan 25 nan nan nan nan nan nan nan nan nan nan nan nan nan nan nan nan nan nan nan nan nan nan
nan nan nan nan nan nan nan nan nan nan nan nan 37 33 30 27 36 34 34 30 32 19 25 30 nan 28 28 nan nan nan nan nan nan nan nan nan nan nan nan nan nan nan nan nan nan nan nan nan nan
nan nan nan nan nan nan nan nan nan nan nan nan nan 33 31 29 26 38 33 29 25 25 24 27 30 31 31 29 29 nan nan nan nan nan nan nan nan nan nan nan nan nan nan nan nan nan nan nan nan
nan nan nan nan nan nan nan nan nan nan nan nan nan nan nan 28 nan 24 29 29 30 30 29 25 27 32 31 31 33 nan nan nan nan nan nan nan nan nan nan nan nan nan nan nan nan nan nan nan nan
nan nan nan nan nan nan nan nan nan nan nan nan nan nan nan nan 28 25 26 28 33 36 31 32 25 27 31 34 35 35 nan nan nan nan nan nan nan nan nan nan nan nan nan nan nan nan nan nan nan
nan nan nan nan nan nan nan nan nan nan nan nan nan nan nan nan nan nan 29 26 30 34 38 36 33 25 27 33 36 36 nan nan nan nan nan nan nan nan nan nan nan nan nan nan nan nan nan nan nan
nan nan nan nan nan nan nan nan nan nan nan nan nan nan nan nan nan nan 31 28 28 29 37 40 37 35 32 31 36 37 37 nan nan nan nan nan nan nan nan nan nan nan nan nan nan nan nan nan nan
nan nan nan nan nan nan nan nan nan nan nan nan nan nan nan nan nan nan nan 37 37 33 32 36 41 37 43 37 35 nan nan nan nan nan nan nan nan nan nan nan nan nan nan nan nan nan nan nan nan
nan nan nan nan nan nan nan nan nan nan nan nan nan nan nan nan nan nan nan nan 38 35 31 32 32 39 40 41 41 nan nan nan nan nan nan nan nan nan nan nan nan nan nan nan nan nan nan nan nan
nan nan nan nan nan nan nan nan nan nan nan nan nan nan nan nan nan nan nan nan nan 39 34 35 31 30 37 43 47 46 nan nan nan nan nan nan nan nan nan nan nan nan nan nan nan nan nan nan nan
nan nan nan nan nan nan nan nan nan nan nan nan nan nan nan nan nan nan nan nan nan 44 40 38 36 37 34 37 41 45 nan nan nan nan nan nan nan nan nan nan nan nan nan nan nan nan nan nan nan
nan nan nan nan nan nan nan nan nan nan nan nan nan nan nan nan nan nan nan nan nan nan nan 41 41 39 38 38 36 36 nan nan nan nan nan nan nan nan nan nan nan nan nan nan nan nan nan nan nan
nan nan nan nan nan nan nan nan nan nan nan nan nan nan nan nan nan nan nan nan nan nan nan nan nan 41 42 nan nan nan nan nan nan nan nan nan nan nan nan nan nan nan nan nan nan nan nan nan nan
nan nan nan nan nan nan nan nan nan nan nan nan nan nan nan nan nan nan nan nan nan nan nan nan nan nan nan 43 nan nan nan nan nan nan nan nan nan nan nan nan nan nan nan nan nan nan nan nan nan
nan nan nan nan nan nan nan nan nan nan nan nan nan nan nan nan nan nan nan nan nan nan nan nan nan nan nan nan nan 43 nan nan nan nan nan nan nan nan nan nan nan nan nan nan nan nan nan nan nan
nan nan nan nan nan nan nan nan nan nan nan nan nan nan nan nan nan nan nan nan nan nan nan nan nan nan nan nan nan 42 42 41 nan 35 nan nan nan nan nan nan nan nan nan nan nan nan nan nan nan
nan nan nan nan nan nan nan nan nan nan nan nan nan nan nan nan nan nan nan nan nan nan nan nan nan nan nan nan 44 45 44 44 nan nan nan nan nan nan nan nan nan nan nan nan nan nan nan nan nan
nan nan nan nan nan nan nan nan nan nan nan nan nan nan nan nan nan nan nan nan nan nan nan nan nan nan nan nan 44 47 46 44 nan 43 nan nan nan nan nan nan nan nan nan nan nan nan nan nan nan
nan nan nan nan nan nan nan nan nan nan nan nan nan nan nan nan nan nan nan nan nan nan nan nan nan nan nan 58 50 52 51 44 46 nan nan nan nan nan nan nan nan nan nan nan nan 37 nan nan nan
Wind_Direction
nan nan nan nan nan nan nan nan nan nan nan nan nan nan nan nan nan nan nan nan 271 274 266 267 235 241 nan nan nan nan nan nan nan nan nan nan nan nan nan nan 304 nan nan nan nan nan nan nan 290
nan nan nan nan nan nan nan nan nan nan nan nan nan nan nan nan nan nan nan nan 274 270 250 250 250 248 nan nan nan nan nan nan nan nan nan nan nan nan nan nan nan nan nan nan nan nan nan nan nan
nan nan nan nan nan nan nan nan nan nan nan nan nan nan nan nan nan nan nan nan 261 251 246 nan 252 260 nan nan nan nan nan nan nan nan nan nan nan nan nan nan nan nan nan nan nan nan nan 309 nan
nan nan nan nan nan nan nan nan nan nan nan nan nan nan nan nan nan nan nan 253 248 245 240 245 262 nan 260 nan nan nan nan nan nan nan nan nan nan nan nan nan 298 nan nan nan nan nan nan nan nan
nan nan nan nan nan nan nan nan nan nan nan nan nan nan nan nan nan nan nan 243 247 241 234 236 260 269 262 nan nan nan nan nan nan nan nan nan nan nan nan nan nan nan nan nan nan nan nan nan nan
nan nan nan nan nan nan nan nan nan nan nan nan nan nan nan nan nan nan 255 240 234 244 240 236 244 nan nan nan nan nan nan nan nan nan 243 nan nan nan nan nan nan nan nan nan nan nan nan nan nan
nan nan nan nan nan nan nan nan nan nan nan nan 241 234 nan nan nan 249 249 236 233 237 239 236 nan nan nan nan nan nan nan nan nan nan nan nan nan nan 270 nan nan nan nan nan nan nan nan nan nan
nan nan nan nan nan nan nan nan nan nan nan 242 236 232 nan nan nan nan 248 246 237 242 234 nan nan nan nan nan nan nan nan nan nan nan nan nan nan nan nan nan nan nan nan nan nan nan nan nan nan
nan nan nan nan nan nan nan nan nan nan nan 242 229 236 241 nan nan nan 244 245 243 237 238 229 nan nan nan nan nan nan nan nan nan nan nan nan nan nan nan nan nan nan nan nan nan nan nan nan nan
nan nan nan nan nan nan nan nan nan nan nan nan 244 226 nan nan nan nan 248 254 258 244 242 235 nan nan nan nan nan nan nan nan nan nan nan nan nan nan nan nan nan nan nan nan nan nan nan nan nan
nan nan nan nan nan nan nan nan nan nan nan nan nan 255 nan nan 253 nan nan 253 261 252 240 239 nan nan nan nan nan nan nan nan nan nan nan nan nan nan nan nan nan nan nan nan nan nan nan nan nan
nan nan nan nan nan nan nan nan nan nan nan nan 245 267 249 247 241 250 252 241 247 253 246 239 nan nan 240 nan nan nan nan nan nan nan nan nan nan nan nan nan nan nan nan nan nan nan nan nan nan
nan nan nan nan nan nan nan nan nan nan nan nan 247 245 245 246 248 246 247 248 243 255 253 245 nan 243 241 nan nan nan nan nan nan nan nan nan nan nan nan nan nan nan nan nan nan nan nan nan nan
nan nan nan nan nan nan nan nan nan nan nan nan nan 246 241 244 249 243 243 246 249 235 253 249 244 246 245 244 250 nan nan nan nan nan nan nan nan nan nan nan nan nan nan nan nan nan nan nan nan
nan nan nan nan nan nan nan nan nan nan nan nan nan nan nan 227 nan 258 248 247 247 237 246 253 250 247 250 251 250 nan nan nan nan nan nan nan nan nan nan nan nan nan nan nan nan nan nan nan nan
nan nan nan nan nan nan nan nan nan nan nan nan nan nan nan nan 237 239 252 247 246 248 248 249 251 253 254 251 249 248 nan nan nan nan nan nan nan nan nan nan nan nan nan nan nan nan nan nan nan
nan nan nan nan nan nan nan nan nan nan nan nan nan nan nan nan nan nan 244 254 252 249 253 254 246 243 255 253 251 253 nan nan nan nan nan nan nan nan nan nan nan nan nan nan nan nan nan nan nan
nan nan nan nan nan nan nan nan nan nan nan nan nan nan nan nan nan nan 249 250 253 252 250 254 251 245 247 249 251 250 251 nan nan nan nan nan nan nan nan nan nan nan nan nan nan nan nan nan nan
nan nan nan nan nan nan nan nan nan nan nan nan nan nan nan nan nan nan nan 236 237 243 249 255 254 254 249 242 244 nan nan nan nan nan nan nan nan nan nan nan nan nan nan nan nan nan nan nan nan
nan nan nan nan nan nan nan nan nan nan nan nan nan nan nan nan nan nan nan nan 246 249 254 255 260 253 253 254 254 nan nan nan nan nan nan nan nan nan nan nan nan nan nan nan nan nan nan nan nan
nan nan nan nan nan nan nan nan nan nan nan nan nan nan nan nan nan nan nan nan nan 241 245 253 256 258 256 254 250 246 nan nan nan nan nan nan nan nan nan nan nan nan nan nan nan nan nan nan nan
nan nan nan nan nan nan nan nan nan nan nan nan nan nan nan nan nan nan nan nan nan 230 235 236 247 253 253 254 256 257 nan nan nan nan nan nan nan nan nan nan nan nan nan nan nan nan nan nan nan
nan nan nan nan nan nan nan nan nan nan nan nan nan nan nan nan nan nan nan nan nan nan nan 239 238 238 246 250 247 253 nan nan nan nan nan nan nan nan nan nan nan nan nan nan nan nan nan nan nan
nan nan nan nan nan nan nan nan nan nan nan nan nan nan nan nan nan nan nan nan nan nan nan nan nan 244 248 nan nan nan nan nan nan nan nan nan nan nan nan nan nan nan nan nan nan nan nan nan nan
nan nan nan nan nan nan nan nan nan nan nan nan nan nan nan nan nan nan nan nan nan nan nan nan nan nan nan 252 nan nan nan nan nan nan nan nan nan nan nan nan nan nan nan nan nan nan nan nan nan
nan nan nan nan nan nan nan nan nan nan nan nan nan nan nan nan nan nan nan nan nan nan nan nan nan nan nan nan nan 255 nan nan nan nan nan nan nan nan nan nan nan nan nan nan nan nan nan nan nan
nan nan nan nan nan nan nan nan nan nan nan nan nan nan nan nan nan nan nan nan nan nan nan nan nan nan nan nan nan 253 256 260 nan 268 nan nan nan nan nan nan nan nan nan nan nan nan nan nan nan
nan nan nan nan nan nan nan nan nan nan nan nan nan nan nan nan nan nan nan nan nan nan nan nan nan nan nan nan 243 247 250 253 nan nan nan nan nan nan nan nan nan nan nan nan nan nan nan nan nan
nan nan nan nan nan nan nan nan nan nan nan nan nan nan nan nan nan nan nan nan nan nan nan nan nan nan nan nan 241 245 248 252 nan 254 nan nan nan nan nan nan nan nan nan nan nan nan nan nan nan
nan nan nan nan nan nan nan nan nan nan nan nan nan nan nan nan nan nan nan nan nan nan nan nan nan nan nan 226 236 237 236 246 250 nan nan nan nan nan nan nan nan nan nan nan nan 306 nan nan nan